Weather History for Ogallala, NE

Change the Weather History Date:

Saturday, October 26, 2013

  Actual Average Record
Temperature  
Mean Temperature 50 °F -  
Max Temperature 64 °F 61 °F 82 °F (1950)
Min Temperature 34 °F 30 °F 3 °F (1997)
Degree Days  
Heating Degree Days 16    
Moisture  
Dew Point 33 °F    
Average Humidity 59    
Maximum Humidity 89    
Minimum Humidity 28    
Precipitation  
Precipitation 0.00 in - - ()
Sea Level Pressure  
Sea Level Pressure 30.21 in    
Wind  
Wind Speed 8 mph (NW)    
Max Wind Speed 15 mph    
Max Gust Speed 20 mph    
Visibility 10 miles    
Events      
Averages and records for this station are not official NWS values.
T = Trace of Precipitation, MM = Missing Value Source: NWS Daily Summary

Daily Weather History Graph

Daily Weather History Graph

Search for Another Location

Airport:

Trip Planner

Search our weather history database for the weather conditions in past years. The results will help you decide how hot, cold, wet, or windy it might be!

Date:

Astronomy

Oct. 26, 2013 Rise Set
Actual Time 7:11 AM MDT 5:49 PM MDT
Civil Twilight 6:43 AM MDT 6:18 PM MDT
Nautical Twilight 6:10 AM MDT 6:50 PM MDT
Astronomical Twilight 5:38 AM MDT 7:22 PM MDT
Moon No Moon Rise 1:29 PM MDT (10/26)
Length of Visible Light 11h 35m
Length of Day
10h 38m
Waning Gibbous, 52% of the Moon is Illuminated
Oct 26
Waning Gibbous
Oct 26
Last Quarter
Nov 3
New
Nov 9
First Quarter
Nov 17
Full

Hourly Weather History & Observations

Time (MDT) Temp. Windchill Dew Point Humidity Pressure Visibility Wind Dir Wind Speed Gust Speed Precip Events Conditions
12:15 AM 52.9 °F - 40.1 °F 62% 30.15 in 10.0 mi North 13.8 mph - N/A   Clear
12:35 AM 51.3 °F - 39.7 °F 65% 30.16 in 10.0 mi North 15.0 mph - N/A   Clear
12:55 AM 50.5 °F - 40.1 °F 67% 30.17 in 10.0 mi North 12.7 mph - N/A   Clear
1:15 AM 50.9 °F - 40.1 °F 67% 30.17 in 10.0 mi North 13.8 mph 19.6 mph N/A   Clear
1:35 AM 50.0 °F - 40.1 °F 69% 30.18 in 10.0 mi North 11.5 mph - N/A   Clear
1:55 AM 49.8 °F - 39.6 °F 68% 30.18 in 10.0 mi North 11.5 mph - N/A   Clear
2:15 AM 48.6 °F - 39.2 °F 70% 30.19 in 10.0 mi North 9.2 mph - N/A   Clear
2:35 AM 47.7 °F - 39.0 °F 72% 30.19 in 10.0 mi North 10.4 mph - N/A   Clear
2:55 AM 48.0 °F - 39.0 °F 71% 30.20 in 10.0 mi North 9.2 mph - N/A   Clear
3:15 AM 48.0 °F - 38.7 °F 70% 30.20 in 10.0 mi North 11.5 mph - N/A   Clear
3:35 AM 48.2 °F - 38.3 °F 69% 30.21 in 10.0 mi North 10.4 mph - N/A   Clear
3:55 AM 45.9 °F 41.2 °F 37.8 °F 73% 30.21 in 10.0 mi NNW 9.2 mph - N/A   Clear
4:15 AM 45.5 °F 40.8 °F 37.6 °F 74% 30.22 in 10.0 mi NNW 9.2 mph - N/A   Clear
4:35 AM 43.7 °F 40.3 °F 36.5 °F 76% 30.23 in 10.0 mi NNW 5.8 mph - N/A   Clear
4:55 AM 45.9 °F 40.8 °F 35.6 °F 67% 30.23 in 10.0 mi North 10.4 mph - N/A   Clear
5:15 AM 45.5 °F 40.3 °F 35.6 °F 68% 30.24 in 10.0 mi NNW 10.4 mph - N/A   Clear
5:35 AM 44.2 °F 40.3 °F 34.7 °F 69% 30.25 in 10.0 mi NW 6.9 mph - N/A   Clear
5:55 AM 41.2 °F 36.6 °F 34.5 °F 77% 30.26 in 10.0 mi NW 6.9 mph - N/A   Clear
6:15 AM 39.2 °F 35.0 °F 34.2 °F 82% 30.26 in 10.0 mi NW 5.8 mph - N/A   Clear
6:35 AM 38.3 °F 33.9 °F 34.0 °F 84% 30.26 in 10.0 mi WNW 5.8 mph - N/A   Clear
6:55 AM 36.5 °F 32.7 °F 33.6 °F 89% 30.27 in 10.0 mi West 4.6 mph - N/A   Clear
7:15 AM 36.5 °F 31.8 °F 33.6 °F 89% 30.27 in 10.0 mi West 5.8 mph - N/A   Clear
7:35 AM 37.0 °F 31.6 °F 34.0 °F 89% 30.28 in 10.0 mi West 6.9 mph - N/A   Clear
7:55 AM 38.5 °F 34.1 °F 34.7 °F 86% 30.29 in 10.0 mi West 5.8 mph - N/A   Clear
8:15 AM 42.4 °F 39.6 °F 36.0 °F 78% 30.29 in 10.0 mi NW 4.6 mph - N/A   Clear
8:35 AM 45.3 °F 43.0 °F 36.0 °F 70% 30.31 in 10.0 mi WNW 4.6 mph - N/A   Clear
8:55 AM 46.6 °F - 35.4 °F 65% 30.31 in 10.0 mi NW 6.9 mph - N/A   Clear
9:15 AM 47.7 °F - 34.5 °F 60% 30.31 in 10.0 mi NNW 5.8 mph - N/A   Clear
9:35 AM 48.9 °F - 33.8 °F 56% 30.31 in 10.0 mi NNW 8.1 mph - N/A   Clear
9:55 AM 50.0 °F - 33.3 °F 53% 30.31 in 10.0 mi NW 6.9 mph - N/A   Clear
10:15 AM 51.8 °F - 32.9 °F 49% 30.31 in 10.0 mi NW 5.8 mph - N/A   Clear
10:35 AM 52.7 °F - 32.5 °F 46% 30.31 in 10.0 mi NW 4.6 mph - N/A   Clear
10:55 AM 53.6 °F - 32.0 °F 44% 30.31 in 10.0 mi NNW 8.1 mph - N/A   Clear
11:15 AM 54.7 °F - 32.5 °F 43% 30.32 in 10.0 mi North 6.9 mph - N/A   Clear
11:35 AM 55.4 °F - 32.0 °F 41% 30.31 in 10.0 mi NW 6.9 mph - N/A   Clear
11:55 AM 56.5 °F - 32.2 °F 40% 30.31 in 10.0 mi NNW 8.1 mph - N/A   Clear
12:15 PM 58.1 °F - 32.2 °F 38% 30.30 in 10.0 mi NW 6.9 mph - N/A   Clear
12:35 PM 58.3 °F - 31.8 °F 37% 30.28 in 10.0 mi NW 8.1 mph - N/A   Clear
12:55 PM 59.5 °F - 32.0 °F 35% 30.28 in 10.0 mi West 8.1 mph - N/A   Clear
1:15 PM 60.6 °F - 32.0 °F 34% 30.27 in 10.0 mi WNW 8.1 mph - N/A   Clear
1:35 PM 60.8 °F - 31.8 °F 34% 30.26 in 10.0 mi West 4.6 mph - N/A   Clear
1:55 PM 60.8 °F - 31.1 °F 33% 30.25 in 10.0 mi NNW 4.6 mph - N/A   Clear
2:15 PM 61.7 °F - 31.1 °F 32% 30.23 in 10.0 mi WNW 4.6 mph - N/A   Clear
2:35 PM 63.1 °F - 31.6 °F 31% 30.22 in 10.0 mi NW 4.6 mph - N/A   Clear
2:55 PM 63.7 °F - 30.7 °F 29% 30.22 in 10.0 mi WNW 6.9 mph - N/A   Clear
3:15 PM 63.3 °F - 30.4 °F 29% 30.21 in 10.0 mi Calm Calm - N/A   Clear
3:35 PM 63.7 °F - 29.8 °F 28% 30.20 in 10.0 mi Calm Calm - N/A   Clear
3:55 PM 64.2 °F - 30.7 °F 29% 30.20 in 10.0 mi NW 3.5 mph - N/A   Clear
4:15 PM 63.9 °F - 30.4 °F 28% 30.18 in 10.0 mi Calm Calm - N/A   Clear
4:35 PM 63.7 °F - 30.0 °F 28% 30.18 in 10.0 mi Calm Calm - N/A   Clear
4:55 PM 63.3 °F - 31.5 °F 30% 30.18 in 10.0 mi West 3.5 mph - N/A   Clear
5:15 PM 62.4 °F - 30.2 °F 30% 30.18 in 10.0 mi Calm Calm - N/A   Clear
5:35 PM 60.8 °F - 30.7 °F 32% 30.17 in 10.0 mi Calm Calm - N/A   Clear
5:55 PM 59.2 °F - 31.6 °F 35% 30.16 in 10.0 mi Calm Calm - N/A   Clear
6:15 PM 53.8 °F - 32.0 °F 44% 30.16 in 7.0 mi Calm Calm - N/A   Clear
6:35 PM 47.8 °F - 31.5 °F 53% 30.16 in 7.0 mi Calm Calm - N/A   Clear
6:55 PM 46.4 °F - 31.8 °F 57% 30.16 in 7.0 mi Calm Calm - N/A   Clear
7:15 PM 41.5 °F - 31.1 °F 66% 30.15 in 5.0 mi Calm Calm - N/A   Haze
7:35 PM 40.1 °F - 31.1 °F 70% 30.15 in 10.0 mi Calm Calm - N/A   Clear
7:55 PM 39.9 °F - 31.1 °F 71% 30.15 in 5.0 mi Calm Calm - N/A   Haze
8:15 PM 38.7 °F - 30.4 °F 72% 30.15 in 10.0 mi Calm Calm - N/A   Clear
8:35 PM 38.3 °F - 30.6 °F 74% 30.14 in 10.0 mi Calm Calm - N/A   Clear
8:55 PM 40.6 °F - 30.9 °F 68% 30.13 in 10.0 mi Calm Calm - N/A   Clear
9:15 PM 40.6 °F - 30.9 °F 68% 30.13 in 10.0 mi Calm Calm - N/A   Clear
9:35 PM 41.0 °F - 31.6 °F 69% 30.13 in 10.0 mi Calm Calm - N/A   Clear
9:55 PM 39.9 °F - 30.6 °F 69% 30.12 in 10.0 mi Calm Calm - N/A   Clear
10:15 PM 38.3 °F - 30.7 °F 74% 30.12 in 10.0 mi Calm Calm - N/A   Clear
10:35 PM 36.7 °F - 30.6 °F 78% 30.11 in 10.0 mi Calm Calm - N/A   Clear
10:55 PM 39.0 °F - 31.3 °F 74% 30.11 in 10.0 mi Calm Calm - N/A   Clear
11:15 PM 36.0 °F 33.3 °F 30.7 °F 81% 30.10 in 10.0 mi WSW 3.5 mph - N/A   Clear
11:35 PM 35.2 °F 31.2 °F 30.9 °F 84% 30.09 in 10.0 mi WSW 4.6 mph - N/A   Clear
11:55 PM 34.7 °F - 30.4 °F 84% 30.08 in 10.0 mi Calm Calm - N/A   Clear